Home   Weather   Brăila   Past weeks

Flag for Romania Past Weather in Brăila, Romania — Yesterday and Last 2 Weeks

44 °F


Feels Like: 44 °F
Forecast: 36 / 47 °F
Wind: 2 mph from Northwest

Location: Galati

Current Time: Oct 27, 2016 at 7:48:53 PM

Latest Report: Oct 27, 2016 at 7:00 PM

Visibility: 6 mi

Pressure: 30.47 "Hg

Humidity: 81%

Dew Point: 38 °F

Location of BrăilaLocation

Past Weather in Brăila — Graph


Brăila Temperature Yesterday

Maximum temperature yesterday: 48 °F (at 11:00 AM)
Minimum temperature yesterday: 43 °F (at 11:00 PM)
Average temperature yesterday: 46 °F

High & Low Weather Summary for the Past Weeks

High59 °F (Oct 22, 3:00 PM)100% (Oct 12, 6:00 PM)30.65 "Hg (Oct 12, 6:00 PM)
Low36 °F (Oct 15, 9:00 AM)51% (Oct 18, 3:00 PM)29.68 "Hg (Oct 12, 7:00 PM)
Average47 °F86%30.31 "Hg
* Reported Oct 12 6:00 PM — Oct 27 6:00 PM, Brăila, Weather by CustomWeather, © 2016

Note: Actual official high and low records may vary slightly from our data, if they occured in-between our weather recording intervals... More about our weather records


Brăila Weather History for the Previous 24 Hours

Scroll right to see more
Time TempWeatherWind HumidityBarometerVisibility
6:00 PM
Thu, Oct 27
44 °FOvercast.3 mph77%30.45 "Hg6 mi
5:00 PM45 °FOvercast.3 mph74%30.45 "Hg6 mi
4:00 PM46 °FOvercast.5 mph69%30.43 "Hg6 mi
3:00 PM45 °FPartly sunny.3 mph75%30.43 "Hg6 mi
2:00 PM45 °FOvercast.3 mph79%30.42 "Hg6 mi
1:00 PM44 °FOvercast.5 mph82%30.42 "Hg6 mi
12:00 PM43 °FOvercast.5 mph83%30.42 "Hg6 mi
11:00 AM42 °FOvercast.3 mph88%30.41 "Hg6 mi
10:00 AM40 °FOvercast.3 mph90%30.40 "Hg6 mi
9:00 AM40 °FOvercast.3 mph93%30.37 "Hg6 mi
8:00 AM39 °FOvercast.3 mph93%30.35 "Hg6 mi
7:00 AM39 °FOvercast.3 mph91%30.34 "Hg6 mi
6:00 AM38 °FFog.3 mph94%30.33 "Hg2 mi
5:00 AM39 °FFog.3 mph94%30.32 "Hg2 mi
4:00 AM39 °FOvercast.3 mph97%30.31 "Hg2 mi
3:00 AM40 °FFog.3 mph97%30.30 "Hg2 mi
2:00 AM40 °FFog.3 mph97%30.29 "Hg2 mi
1:00 AM41 °FFog.2 mph98%30.29 "Hg2 mi
12:00 AM41 °FOvercast.3 mph98%30.27 "Hg2 mi
11:00 PM
Wed, Oct 26
43 °FLight rain. Overcast.2 mph98%30.27 "Hg2 mi
10:00 PM44 °FLight rain. Overcast.2 mph99%30.25 "Hg2 mi
9:00 PM44 °FLight rain. Overcast.2 mph98%30.24 "Hg2 mi
8:00 PM44 °FLight rain. Overcast.2 mph99%30.22 "Hg2 mi
7:00 PM45 °FLight rain. Overcast.2 mph98%30.20 "Hg2 mi
Weather by CustomWeather, © 2016

See weather overviewHow to use our weather pages